Simultaneous Nadir Overpasses (SNOs) Predictions

Prediction of SNOs between AQUA and NOAA-19 Satellite Orbit:

Table of predicted SNOs for the next 14.0 days since TLE Epoch: 6/12/2021
Index Date (AQUA) Time (AQUA) Lat,Lon (AQUA) SZA (AQUA ) Date (NOAA-19) Time (NOAA-19) Lat,Lon (NOAA-19) SZA (NOAA-19 ) Distance(km) Time Diff (sec)
1 06/13/2021 22:07:57 -78.78, 5.53 123.60 06/13/2021 22:07:20 -78.77, 5.37 123.58 3.46 37
2 06/13/2021 22:57:25 78.83, 172.88 56.48 06/13/2021 22:58:22 78.83, 173.00 56.44 2.65 57
3 06/16/2021 03:41:41 78.78, 102.13 56.32 06/16/2021 03:40:33 78.76, 102.06 56.33 2.23 68
4 06/16/2021 04:31:08 -78.80, -90.39 123.65 06/16/2021 04:31:29 -78.80, -90.36 123.66 0.57 21
5 06/18/2021 10:04:52 78.80, 6.18 56.30 06/18/2021 10:04:42 78.77, 6.19 56.28 3.54 10
6 06/18/2021 10:54:25 -79.07, 172.25 123.33 06/18/2021 10:55:30 -79.09, 175.94 123.62 77.76 65
7 06/20/2021 15:38:35 -78.78, 102.89 123.75 06/20/2021 15:37:49 -78.78, 103.05 123.74 3.59 46
8 06/20/2021 16:28:02 78.79, -89.54 56.27 06/20/2021 16:28:50 78.81, -89.46 56.27 3.02 48
9 06/22/2021 21:12:15 78.62,-159.67 56.06 06/22/2021 21:11:06 78.56,-161.68 56.21 44.47 69
10 06/22/2021 22:01:45 -78.77, 7.14 123.74 06/22/2021 22:01:59 -78.77, 7.03 123.73 2.32 14
11 06/25/2021 03:35:28 78.74, 103.88 56.28 06/25/2021 03:35:09 78.77, 103.87 56.32 3.97 19



Historial Predications of SNOs between AQUA and NOAA-19
